Flag for Canada

Past Weather in Vancouver, British Columbia, Canada — December 2017

Now
36 °F

Passing clouds.


Feels Like: 36 °F
Forecast: 46 / 33 °F
Wind: 2 mph from North

Location: Vancouver International Airport
Current Time: Oct 25, 2020 at 9:44:52 pm
Latest Report: Oct 25, 2020 at 9:00 pm
Visibility: 15 mi
Pressure30.56 "Hg
Humidity: 81%
Dew Point: 30 °F
Location of VancouverLocation

December 2017 Weather in Vancouver — Graph

°F

High & Low Weather Summary for December 2017

 TemperatureHumidityPressure
High46 °F (Dec 10, 12:00 pm)100% (Dec 1, 12:15 am)30.71 "Hg (Dec 1, 12:15 am)
Low23 °F (Dec 23, 6:00 am)48% (Dec 23, 2:05 pm)29.46 "Hg (Dec 19, 12:56 pm)
Average37 °F92%30.26 "Hg
* Reported Dec 1 12:15 am — Dec 31 11:00 pm, Vancouver. Weather by CustomWeather, © 2020

Note: Actual official high and low records may vary slightly from our data, if they occured in-between our weather recording intervals... More about our weather records

Vancouver Weather History for December 1, 2017

Scroll right to see more
 ConditionsComfort  
Time TempWeatherWind HumidityBarometerVisibility
12:15 am
Fri, Dec 1
43 °FLight rain. Overcast.10 mph100%30.08 "Hg15 mi
1:00 am43 °FLight rain. Mostly cloudy.10 mph100%30.07 "Hg12 mi
2:00 am43 °FLight rain. Mostly cloudy.9 mph100%30.06 "Hg10 mi
2:51 am43 °FLight rain. Mostly cloudy.12 mph100%30.04 "Hg10 mi
3:00 am45 °FLight rain. Overcast.10 mph93%30.04 "Hg10 mi
3:11 am45 °FOvercast.10 mph93%30.03 "Hg10 mi
3:44 am45 °FPassing clouds.13 mph93%30.01 "Hg12 mi
4:00 am45 °FMostly cloudy.12 mph93%30.00 "Hg12 mi
4:43 am45 °FLight rain. Mostly cloudy.12 mph93%30.00 "Hg10 mi
5:00 am45 °FLight rain. Mostly cloudy.15 mph93%29.99 "Hg10 mi
6:00 am45 °FLight rain. Mostly cloudy.15 mph93%29.98 "Hg12 mi
6:30 am45 °FMostly cloudy.16 mph93%29.99 "Hg15 mi
7:00 am45 °FLight rain. Overcast.15 mph93%29.97 "Hg15 mi
8:00 am45 °FLight rain. Cloudy.17 mph93%29.98 "Hg12 mi
9:00 am45 °FCloudy.15 mph93%29.97 "Hg15 mi
9:39 am45 °FLight rain. Cloudy.9 mph93%29.97 "Hg20 mi
10:00 am45 °FLight rain. Cloudy.9 mph93%29.97 "Hg15 mi
11:00 am45 °FLight rain. Cloudy.10 mph93%29.97 "Hg15 mi
12:00 pm45 °FLight rain. Cloudy.12 mph93%29.95 "Hg15 mi
1:00 pm45 °FLight rain. Mostly cloudy.13 mph93%29.94 "Hg15 mi
2:00 pm45 °FLight rain. Cloudy.7 mph93%29.93 "Hg12 mi
3:09 pm45 °FLight rain. Cloudy.12 mph93%29.91 "Hg12 mi
3:14 pm45 °FLight rain. Mostly cloudy.13 mph93%29.91 "Hg12 mi
4:00 pm45 °FLight rain. Mostly cloudy.13 mph93%29.90 "Hg12 mi
5:11 pm41 °FHeavy rain. Overcast.14 mph93%29.89 "Hg12 mi
5:36 pm41 °FRain. Mostly cloudy.12 mph93%29.90 "Hg10 mi
6:00 pm41 °FLight rain. Mostly cloudy.9 mph93%29.90 "Hg15 mi
6:33 pm41 °FLight rain. Mostly cloudy.12 mph100%29.89 "Hg15 mi
7:23 pm41 °FLight rain. Overcast.13 mph93%29.90 "Hg15 mi
7:49 pm41 °FOvercast.14 mph93%29.89 "Hg15 mi
8:06 pm41 °FMostly cloudy.13 mph93%29.89 "Hg15 mi
8:28 pm41 °FPartly cloudy.12 mph93%29.90 "Hg15 mi
8:41 pm39 °FLight rain. Mostly cloudy.12 mph100%29.90 "Hg15 mi
9:00 pm39 °FPartly cloudy.13 mph93%29.90 "Hg15 mi
10:00 pm39 °FPartly cloudy.7 mph93%29.92 "Hg20 mi
11:00 pm43 °FPartly cloudy.7 mph87%29.92 "Hg20 mi
Weather by CustomWeather, © 2020

See weather overview